Location: Bats
(43.6587°N, 0.4584°W)
Time: 08:35:24
(UTC+00:00)

Cosmos 2056 Rocket - Pass Details

Date: 12 January 2026
Orbit: 738 x 795 km, 74.0° (Epoch: 17 February)

Event Time Altitude Azimuth Distance (km) Brightness Sun altitude
Rises 18:03:14 0° 209° (SSW) 3,197 7.5 -13.5°
Reaches altitude 10° 18:05:38 10° 213° (SSW) 2,268 6.7 -13.9°
Maximum altitude 18:10:42 60° 293° (WNW) 850 4.0 -14.8°
Drops below altitude 10° 18:15:45 10° 14° (NNE) 2,259 5.7 -15.6°
Enters shadow 18:16:58 - 16° (NNE) 2,728 6.1 -15.9°
